Location: Dammartin
(48.9032°N, 1.6195°E)
Time: 15:51:36
(UTC+00:00)

MOS 1-B - Pass Details

Date: 03 February 2023
Orbit: 904 x 913 km, 99.4° (Epoch: 31 March)

Event Time Altitude Azimuth Distance (km) Brightness Sun altitude
Rises 18:14:17 0° 151° (SSE) 3,529 7.2 -13.4°
Reaches altitude 10° 18:16:42 10° 148° (SSE) 2,593 6.5 -13.8°
Maximum altitude 18:22:23 63° 69° (ENE) 1,018 4.3 -14.7°
Drops below altitude 10° 18:28:08 10° 350° (N) 2,614 6.8 -15.7°
Sets 18:30:35 0° 347° (NNW) 3,561 7.5 -16.1°
